FENGYUN 1C DEB

Satellite information

Favourite Embed

Satellite Type and Status

DEBRISIN ORBIT

Key statistics

Satellite FENGYUN 1C DEB at a glance.

Uptime

9613

Days in orbit

Revolutions

≈ 14.2

Per day

Orbit

SSO

Sun Synchronous Orbit

Inclination

98.6

Latest

Satellite identification and parameters

Extended collection of information and parameters for FENGYUN 1C DEB.

Object identification

Identified? True

Debris? True

Object name: FENGYUN 1C DEB

International designator: 1999-025DHM

Object number (NORAD): 33724

Object ID (CCSDS): 33724

Country: PEOPLES REPUBLIC OF CHINA (PRC)

Current information (Y/N): Y

RCS size: SMALL

Orbital parameters

Period: 101.454 minutes

Inclination: 98.6092 deg

SMA: 7205.626 km

Apoapsis: 848.242 km

Periapsis: 806.741 km

RAAN: 258.4819 deg

Eccentricy: 0.00287979

Argument of periapsis: 115.0938 deg

Mean anomaly: 258.0656 deg

Mean motion: 14.19368505 rev/day

Mean motion (dot): 0.00001694 rev/day2

B* drag term: 0.00082277982 1/REarth

Two-line elements (TLE)

Creation date: Sept. 2, 2025, 11:42 p.m.

Reference frame: TEME

Reference center: EARTH

Epoch: Sept. 2, 2025, 7:44 a.m. UTC

TLE line 0: 0 FENGYUN 1C DEB

TLE line 1: 1 33724U 99025DHM 25245.32273233 .00001694 00000-0 82278-3 0 9997

TLE line 2: 2 33724 98.6092 258.4819 0028798 115.0938 258.0656 14.19368505925238

Live tracking on map

Real-time ground track for satellite FENGYUN 1C DEB.

In-orbit conjunctions

A list of the most updated potential collisions computed for object FENGYUN 1C DEB.

Target Orbit TCA Probability of collision Miss distance Type
AAU CUBESAT SSO 2025-04-18 20:25:50 0.0002483197 412.0 (m) PAYLOAD
SL-16 R/B LEO 2024-12-01 11:00:27 0.0002194653 843.0 (m) ROCKET BODY

Associated space launch

Chinese polar orbiting meteorological satellite

FENGYUN 1C DEB was lifted into orbit during the mission ‘Long March 4B | Feng Yun 1C’, on board a Long March 4B space rocket.

The launch took place on May 10, 1999, 1:33 a.m. from Launch Complex 7.

For more information about the launch, click the button.

Launch to space Long March 4B | Feng Yun 1C
Long March 4B | Feng Yun 1C

Agency: N/A

Status: Launch Successful

Launch date: May 10, 1999, 1:33 a.m. UTC

Rocket: Long March 4B

Launch pad: Launch Complex 7

Location: Taiyuan Satellite Launch Center, People's Republic of China

...

Latest news about this satellite

There are no fresh news available about this satellite. Check back as we update our databases every day.


Newsletter sign-up

Weekly statistics, charts and insights to help you stay on top of the space industry.